Wind_Speed
17 20 21 22 26 28 29 27 25 26 30 34 35 33 33 33 32 31 34 38 38 35 33 31 30 30 29 29 31 32 31 30 28 27 28 29 29 29 28 27 26 24 22 21 23 27 29 27 25 23 23 23 22 21 19 18 17 16 16 16 17 18 17 15 11 10 13 13 11 13 15 15 14 13 12 13 14 17 19 18 20 22 20 18 18
14 16 20 25 28 30 29 26 24 24 26 32 35 34 33 33 33 33 35 38 39 37 35 33 32 32 32 32 31 32 33 32 30 29 28 29 31 32 31 30 29 26 24 22 22 26 29 29 27 25 24 24 23 22 21 19 19 19 20 20 21 20 18 14 11 11 14 16 14 14 16 17 17 15 15 15 13 15 18 20 23 24 22 22 23
12 14 17 22 25 29 30 28 27 28 29 32 35 37 36 33 31 34 37 38 40 39 37 35 34 33 34 35 34 34 34 35 34 32 30 30 32 34 34 32 31 28 26 25 23 24 27 28 28 28 26 25 24 24 23 21 20 21 21 21 21 20 18 14 11 12 15 15 15 16 18 18 17 17 17 16 14 15 18 21 24 24 23 24 25
11 13 16 19 22 26 30 31 32 32 32 35 37 38 37 34 33 38 41 41 41 41 39 38 37 35 36 38 38 37 36 36 37 37 35 33 33 35 36 35 33 30 29 27 25 26 28 29 29 29 29 27 26 25 25 23 22 22 22 21 20 19 18 15 12 13 15 16 16 17 19 18 17 19 20 17 16 16 17 20 23 23 23 24 24
12 13 14 17 19 23 27 31 36 37 36 37 38 39 39 38 38 41 44 44 44 42 41 39 38 36 37 38 39 40 39 38 39 41 39 35 34 35 37 36 35 32 29 28 27 27 30 31 31 30 31 31 29 28 27 25 24 24 25 25 21 19 18 17 15 14 16 18 18 18 19 19 19 22 24 21 19 19 17 20 23 23 22 22 23
14 15 16 18 19 22 24 26 32 38 40 39 38 39 41 41 40 40 41 45 47 44 41 39 38 38 39 40 40 41 41 40 40 42 42 38 36 36 37 36 36 34 32 30 28 29 31 32 32 32 33 33 32 31 30 28 26 27 28 26 23 20 19 18 16 15 15 19 20 19 21 21 20 22 25 25 23 22 20 21 24 24 24 23 23
15 16 18 19 21 22 24 26 28 33 38 40 37 37 41 41 38 34 35 43 49 46 41 38 39 41 41 41 42 42 41 41 42 43 43 41 39 38 37 37 37 36 35 32 31 31 33 33 33 33 34 35 34 33 32 30 28 29 29 27 24 22 20 17 16 15 15 19 22 22 22 24 23 22 24 26 25 24 23 23 25 26 27 26 23
17 18 19 21 22 22 24 27 29 31 34 37 36 38 42 43 40 35 33 40 46 46 40 37 39 42 43 42 44 43 42 42 43 43 44 44 40 37 38 38 38 37 36 33 31 32 33 33 33 33 34 35 35 35 34 32 29 30 31 29 27 24 21 19 17 15 16 18 22 23 23 25 27 24 24 27 29 29 28 27 26 26 27 28 26
18 18 20 21 23 23 24 26 29 31 32 34 36 40 43 42 41 40 38 39 43 44 39 36 38 41 42 43 43 44 43 43 44 45 46 45 40 37 38 39 39 39 38 34 32 32 33 34 34 34 35 35 35 35 35 34 32 32 32 32 31 27 23 21 19 18 18 18 21 24 25 27 30 29 29 32 35 33 31 30 28 25 26 29 29
20 21 21 22 23 24 25 26 28 30 32 33 36 40 43 42 42 43 43 42 44 44 40 37 36 38 40 42 43 44 45 45 46 47 47 46 42 38 39 40 40 41 40 35 33 34 35 35 35 35 35 35 34 35 36 36 34 33 32 32 30 28 26 24 22 22 22 21 20 25 29 31 33 32 32 33 34 33 33 33 31 26 25 28 31
19 21 23 23 24 26 27 27 28 29 30 32 34 37 41 43 45 46 44 42 41 40 38 37 37 37 40 41 42 44 45 46 48 49 49 48 45 42 42 42 41 43 42 37 35 35 36 36 36 36 36 36 35 34 34 36 36 33 31 30 28 27 26 24 23 25 28 26 23 24 30 33 34 33 32 31 32 35 35 34 33 29 27 31 33
21 21 22 23 24 26 28 29 29 30 29 30 32 35 37 40 43 43 41 40 39 38 37 36 37 39 41 43 43 43 43 45 47 49 51 51 48 45 45 44 42 42 43 40 37 37 38 38 38 37 37 38 38 37 36 36 36 34 31 29 26 26 26 24 22 25 30 30 26 24 28 32 33 33 32 31 32 35 35 35 35 32 30 33 36
25 25 25 24 25 26 27 29 30 32 31 30 31 33 36 39 42 42 40 39 39 39 39 38 38 40 42 44 45 44 42 43 45 48 51 52 50 48 48 47 43 41 41 40 38 39 40 39 39 39 37 37 38 38 39 39 38 37 34 32 28 26 26 25 23 25 30 31 29 26 26 29 31 32 31 30 31 34 35 36 36 33 32 34 36
25 26 27 27 28 28 28 29 30 32 33 32 31 33 37 40 42 43 41 40 41 42 42 41 40 40 42 45 46 45 44 43 44 49 52 53 52 51 51 50 46 41 39 39 38 40 41 41 41 41 39 38 37 38 40 41 41 40 39 37 33 29 26 25 24 27 30 32 32 30 27 28 29 28 28 29 31 34 36 37 37 35 33 32 33
25 26 28 28 29 31 32 33 33 33 33 33 32 33 36 38 40 41 42 42 42 43 44 43 42 42 43 47 47 46 47 47 47 50 53 53 53 54 54 52 48 44 41 41 40 40 43 43 43 42 41 40 39 38 38 40 42 43 43 41 37 34 30 26 26 30 31 32 33 31 27 26 26 24 25 28 31 32 34 35 35 35 33 31 32
27 27 28 29 31 32 32 33 34 34 34 34 34 34 36 37 38 40 42 43 43 45 45 45 45 45 45 48 50 48 49 51 52 53 54 53 52 54 56 53 49 46 45 44 43 43 44 45 44 43 41 39 38 36 36 38 41 43 44 43 41 38 35 32 31 33 32 33 35 32 28 26 26 26 27 29 31 32 32 33 33 34 34 34 36
29 30 31 32 32 32 33 34 35 35 34 34 36 37 37 37 38 39 41 43 44 46 47 46 45 45 46 49 51 49 48 50 53 55 56 55 54 57 58 54 49 48 47 46 46 46 46 47 45 42 40 38 36 35 37 38 39 41 43 44 43 42 40 38 37 36 34 34 35 34 30 27 27 29 31 31 31 32 33 36 37 37 37 38 39
31 32 34 35 35 35 36 37 38 39 39 37 37 39 39 39 38 39 41 44 44 45 47 46 45 45 48 51 52 52 50 49 49 50 51 52 54 58 61 58 51 48 48 47 47 47 47 46 45 42 41 40 38 38 40 40 40 41 42 42 44 43 41 41 41 38 36 36 36 36 33 29 28 31 34 34 32 32 35 38 38 38 40 40 40
32 34 36 38 38 39 39 40 40 43 44 42 39 39 40 40 40 39 40 43 45 44 44 46 47 48 51 52 51 52 53 49 47 49 50 49 51 54 58 59 53 49 48 47 46 46 45 45 45 43 43 42 40 39 41 41 41 42 42 41 42 41 40 41 41 39 37 38 38 36 32 29 29 31 35 36 35 34 36 38 38 38 40 41 40
34 36 38 39 39 40 42 43 43 41 42 43 43 41 40 40 41 40 40 43 45 44 43 44 48 50 52 51 50 52 54 49 44 47 51 51 50 51 54 56 54 50 48 47 45 44 43 43 45 45 43 43 42 41 42 43 42 41 41 40 40 38 37 38 38 35 33 34 34 33 29 28 29 31 33 37 39 38 37 37 38 39 39 38 39
37 38 39 39 40 41 42 44 46 44 42 44 46 44 41 40 42 42 41 41 43 45 44 45 48 51 52 51 51 52 53 45 38 41 49 52 49 48 51 53 54 51 48 46 44 43 43 44 45 46 44 43 42 42 43 43 41 40 40 39 37 36 37 37 34 30 28 29 30 31 29 29 31 32 33 36 40 42 42 40 40 40 40 39 39
38 39 40 40 40 41 42 44 47 49 46 43 44 45 43 41 42 43 42 41 42 45 46 45 48 52 52 53 53 52 52 47 36 31 38 48 48 47 48 50 53 53 49 46 45 43 44 46 47 47 45 42 42 43 42 42 41 41 39 37 36 36 37 36 32 28 26 27 29 31 31 31 33 33 34 35 37 41 44 44 43 43 43 42 41
39 40 40 39 39 41 44 44 45 50 49 44 41 42 43 41 41 43 45 43 42 46 48 46 47 52 52 55 56 51 52 55 41 25 23 34 41 43 45 47 51 53 48 46 46 46 44 45 47 46 43 41 41 41 40 42 43 41 39 37 36 36 36 34 31 29 28 28 30 31 33 33 34 35 36 36 36 38 41 45 47 47 46 46 46
39 39 39 38 37 39 41 41 41 45 48 45 41 40 42 42 41 42 45 45 43 46 49 47 48 52 53 54 55 52 52 55 47 33 28 30 34 39 43 44 47 49 45 41 42 43 41 41 43 43 40 39 40 39 41 44 43 40 38 38 36 35 35 35 33 32 31 31 32 34 35 36 36 37 38 36 34 32 34 38 43 47 50 51 51
38 38 38 38 37 36 36 36 36 37 39 42 42 41 42 43 42 42 44 46 45 46 49 49 49 52 54 53 53 52 51 49 44 38 34 33 34 38 42 44 45 45 44 40 38 38 37 38 39 40 39 38 36 36 38 41 40 38 38 37 35 35 36 36 35 34 34 35 36 37 37 38 38 38 38 35 31 29 28 30 34 40 45 50 52
37 38 38 36 33 32 32 33 33 32 34 39 42 42 42 44 43 41 43 46 46 46 48 50 50 51 53 54 52 51 50 47 41 38 35 35 35 34 35 39 42 44 44 41 37 35 35 37 38 39 39 38 36 34 33 33 31 32 34 34 34 35 37 37 37 38 39 39 40 39 39 39 38 37 37 35 33 32 30 30 31 33 35 39 42
37 38 37 32 28 28 30 33 33 33 34 37 39 41 43 44 43 41 41 44 46 46 46 48 50 51 52 54 54 52 51 48 42 38 35 35 34 32 29 30 34 39 41 40 36 34 33 36 39 40 38 36 34 30 28 26 25 26 28 30 31 33 35 36 37 39 41 43 42 42 40 39 38 38 38 36 36 35 34 32 33 34 34 34 36
37 38 36 30 26 26 28 30 33 36 37 37 38 40 42 44 43 41 42 43 45 46 47 47 48 49 51 53 54 52 51 49 45 40 38 37 38 37 32 26 26 32 37 39 39 36 31 30 34 34 33 31 29 26 24 24 25 26 27 29 30 31 31 31 33 36 39 42 43 43 41 39 38 38 38 38 39 39 37 36 37 37 37 37 40
37 38 35 28 24 26 28 29 31 34 37 38 38 38 40 42 41 40 42 45 45 45 48 48 47 48 49 50 52 53 53 51 48 44 42 42 42 41 35 26 23 27 33 41 45 37 22 15 15 17 18 20 20 21 23 24 26 28 29 30 31 31 30 30 32 34 37 39 41 42 43 41 40 39 38 39 39 38 37 38 39 40 40 42 45
36 36 33 26 22 24 27 28 28 31 34 37 38 38 39 41 39 37 40 43 43 43 48 50 48 48 47 47 49 52 52 48 44 43 42 43 44 43 36 29 27 28 30 40 48 39 20 12 11 13 16 20 21 23 26 28 30 32 33 33 33 33 33 34 35 36 38 39 40 41 42 43 44 43 43 43 43 41 39 39 40 42 43 44 46
35 33 30 26 23 24 26 26 26 27 29 33 35 35 36 37 36 36 40 43 41 39 44 49 50 50 50 48 48 49 48 46 42 41 42 42 43 43 39 34 34 33 32 38 47 44 32 24 22 23 25 27 28 29 30 32 34 36 36 36 36 35 35 36 36 37 38 39 40 41 41 42 44 45 46 47 46 45 42 40 41 43 44 45 46
35 29 26 26 25 25 25 25 25 24 24 25 28 28 30 33 35 34 37 43 43 40 40 43 46 46 46 46 46 48 48 47 45 43 43 42 41 41 42 40 39 40 38 39 43 45 42 37 33 31 32 33 34 35 36 36 37 39 39 38 37 37 37 36 36 37 37 37 38 38 38 39 41 43 46 48 48 46 44 44 45 45 45 46 46
34 26 22 23 25 24 21 19 21 23 22 22 25 27 28 31 32 30 31 37 39 36 35 39 44 45 44 42 45 48 49 49 48 46 43 42 41 42 43 43 43 43 42 41 43 45 45 41 36 32 32 35 37 38 38 39 40 41 40 38 35 34 34 33 33 33 34 34 34 35 34 33 34 36 39 44 47 50 50 48 47 48 47 46 46
34 26 19 18 21 24 24 18 14 19 23 23 24 26 25 22 19 20 25 31 29 21 16 18 27 37 41 42 45 49 49 49 49 47 43 41 43 44 44 43 41 39 38 40 42 43 41 38 34 33 34 36 36 37 39 39 38 37 35 32 30 29 28 28 28 29 30 31 32 33 33 33 34 34 34 35 39 46 50 50 50 50 49 47 48
35 29 21 16 18 21 21 19 12 11 16 18 18 19 18 14 8 9 15 23 25 20 14 7 3 11 16 20 28 39 45 44 43 43 42 42 44 45 44 41 37 36 36 39 40 40 39 37 36 37 38 38 36 36 35 34 32 31 29 28 27 27 26 26 26 27 28 29 31 33 34 34 35 35 35 34 34 38 43 47 49 50 50 50 51
37 34 27 20 19 20 19 19 17 11 7 7 6 4 7 7 5 5 7 14 21 23 19 12 8 9 7 7 5 14 29 37 38 38 39 42 43 43 40 37 36 37 39 40 39 38 37 36 36 37 38 36 34 32 30 29 28 28 28 27 27 26 26 26 27 27 28 30 32 33 34 34 34 35 36 37 37 37 38 40 42 44 47 50 52
37 36 31 26 23 21 19 19 20 18 16 15 13 12 12 9 5 3 5 5 3 10 10 8 12 15 12 7 10 11 6 18 30 35 34 33 33 32 29 28 30 34 36 37 36 34 31 30 30 31 31 30 28 27 27 26 27 27 27 27 27 27 27 27 28 30 31 33 35 35 35 35 36 36 37 39 41 41 40 39 39 40 43 45 48
35 36 33 30 27 23 20 20 20 21 21 20 19 19 18 15 12 11 14 17 15 14 14 11 6 4 4 4 4 8 10 3 11 21 22 20 21 23 21 18 19 22 24 26 28 28 27 26 25 25 25 25 24 24 24 24 25 25 26 27 27 28 28 28 29 31 33 35 36 37 37 38 38 38 39 41 43 43 43 42 40 39 40 42 45
35 37 35 33 30 27 23 22 20 20 22 23 22 23 22 20 19 19 19 18 19 22 22 19 15 12 9 7 4 3 4 6 5 6 9 10 12 15 16 15 14 14 16 16 16 17 18 19 20 20 20 20 21 21 22 23 24 25 26 27 27 28 29 30 32 33 34 35 36 37 38 40 41 41 43 45 46 45 43 42 41 40 40 41 43
33 36 37 35 33 31 28 25 23 21 21 21 21 23 25 25 25 26 26 23 22 23 22 20 20 19 17 16 16 15 12 9 8 7 8 8 8 8 11 14 14 14 14 14 13 12 13 14 14 14 14 15 16 18 19 21 22 23 25 26 28 29 30 31 33 34 35 36 37 37 38 38 40 41 43 44 44 44 43 42 42 41 41 39 39
31 33 35 36 36 35 33 31 28 26 24 23 21 21 23 22 21 22 22 22 22 21 20 19 19 19 18 18 18 19 20 20 18 16 15 15 13 12 12 14 15 15 15 16 17 18 19 19 19 19 19 19 19 19 20 21 24 26 28 29 30 31 32 33 35 36 37 37 37 37 37 38 38 40 41 41 40 41 42 42 40 39 38 37 37
30 32 32 34 35 36 36 35 33 30 28 26 24 22 22 21 20 19 18 17 16 16 16 16 15 14 14 14 14 15 19 22 21 21 21 20 19 19 18 18 18 18 18 18 19 20 21 22 23 23 23 23 23 23 23 24 27 29 31 33 35 36 37 38 38 37 37 37 37 37 37 38 39 39 39 37 37 38 39 39 38 37 37 37 37
28 30 31 30 31 33 34 34 34 34 33 31 29 27 24 22 21 19 18 17 16 14 13 13 12 10 8 7 6 7 10 13 14 14 15 14 14 15 16 16 16 16 17 17 18 18 19 21 22 23 25 26 27 29 30 32 33 35 36 37 39 40 40 40 39 38 38 38 39 39 39 40 40 40 40 39 39 40 40 40 39 38 38 38 37
24 27 29 29 28 29 30 31 32 33 33 33 32 31 30 27 26 24 22 20 19 17 16 14 13 11 9 8 6 4 3 2 2 3 4 4 4 5 7 9 11 13 14 16 17 19 20 22 23 24 26 27 28 30 31 32 33 34 35 35 36 37 37 38 38 38 39 40 39 39 39 40 40 40 40 41 41 41 42 41 41 41 41 40 37
22 24 27 28 28 28 28 28 29 30 31 32 34 34 33 31 30 28 27 25 24 22 20 18 16 14 13 12 11 10 9 8 6 4 4 3 4 5 7 8 10 12 13 15 16 18 19 20 21 22 22 23 24 26 28 29 30 32 33 33 34 34 34 35 35 35 36 36 35 35 35 36 37 38 39 39 38 38 38 38 38 39 39 38 35
22 22 24 26 27 28 28 28 28 28 29 31 33 34 35 34 33 32 30 29 28 27 26 24 21 19 18 16 15 13 12 9 8 7 5 4 4 4 5 7 9 10 11 12 14 15 16 16 17 17 18 18 19 20 22 22 23 24 25 26 27 28 27 27 27 27 27 27 27 27 27 28 29 30 31 31 31 31 31 31 31 31 31 30 30
22 23 24 25 26 27 27 28 28 28 28 28 30 32 33 33 33 33 33 32 31 31 30 29 27 25 23 21 19 17 15 13 11 9 9 8 7 6 5 3 3 3 4 4 5 6 7 7 7 8 8 8 8 9 9 9 10 10 11 12 13 14 14 15 15 16 18 19 20 20 20 20 21 22 23 23 24 24 25 25 24 24 24 24 24
19 21 22 23 25 26 26 27 28 29 29 28 28 29 30 30 30 30 31 31 31 32 31 31 30 29 28 27 25 23 21 18 16 14 13 13 12 12 11 11 10 9 8 7 7 6 6 6 6 6 5 4 4 4 4 4 4 5 5 7 8 10 11 12 12 12 13 14 16 17 17 17 17 18 18 18 19 20 20 20 20 19 19 19 19
16 17 19 19 21 23 24 24 26 27 28 28 28 28 29 29 29 29 29 29 29 29 29 29 29 28 28 28 28 27 26 25 23 22 20 19 18 17 16 16 16 15 14 13 13 13 12 11 11 11 10 9 9 8 8 7 7 7 8 8 9 11 13 14 14 13 12 12 12 14 14 15 15 15 15 16 17 17 17 17 17 16 16 16 16
14 14 16 18 17 17 19 20 22 24 25 25 26 27 27 28 28 29 28 28 28 27 27 26 26 25 24 24 24 24 24 24 24 24 23 22 21 20 19 19 19 18 17 17 16 15 14 13 13 12 12 11 10 10 9 9 10 10 11 11 11 11 13 14 15 16 15 14 13 12 12 12 13 14 15 15 15 15 15 15 15 14 14 14 14
13 12 13 15 14 13 15 17 18 20 20 21 22 22 23 24 25 26 26 26 26 26 25 25 24 24 23 22 22 21 20 20 19 18 18 18 17 16 16 16 15 15 15 15 15 14 13 12 11 10 9 9 9 9 9 9 9 10 10 10 11 11 12 13 15 15 15 15 16 15 14 12 11 11 12 13 14 15 15 14 13 12 11 11 10
Wind_Direction
242 228 224 236 246 245 240 236 238 245 247 246 245 242 238 239 238 230 221 216 214 214 213 214 214 214 215 216 215 215 215 214 212 212 214 216 217 217 214 212 215 220 224 222 222 223 219 215 215 217 219 221 220 222 226 228 227 224 223 225 227 229 231 232 230 215 213 218 225 241 246 241 244 243 233 234 229 222 222 219 221 229 233 237 240
258 243 229 227 233 236 234 230 230 238 245 244 240 238 235 231 235 241 235 222 216 215 215 214 214 215 216 217 216 216 217 216 213 212 213 215 217 218 216 214 215 217 223 224 220 218 217 215 216 218 220 223 222 223 227 226 226 225 225 227 228 233 236 230 220 210 214 219 218 224 235 240 245 243 235 241 241 227 221 215 213 222 232 238 240
264 257 245 235 231 231 231 229 230 234 240 242 237 235 235 231 236 245 242 231 221 216 214 215 215 215 217 220 220 219 218 217 217 216 214 214 216 219 218 217 217 215 219 225 221 217 218 217 217 217 220 224 223 223 226 226 228 231 232 232 230 234 240 232 213 209 218 226 221 216 223 234 242 241 237 242 247 236 224 217 215 222 231 236 239
269 264 259 251 242 237 234 232 234 234 235 236 236 236 236 234 238 243 240 235 226 217 213 216 217 217 217 220 221 221 220 218 217 217 217 215 215 218 219 218 220 218 218 226 225 218 218 220 219 217 218 222 224 224 225 224 226 232 236 238 235 230 237 239 220 208 214 225 228 222 222 225 228 235 241 240 239 240 230 219 220 227 234 237 240
270 264 261 258 253 249 243 238 237 237 235 234 234 237 236 230 230 234 236 236 230 219 214 213 215 215 215 219 222 221 221 219 217 216 216 215 214 216 218 219 221 220 218 226 226 217 217 221 222 220 217 219 223 224 225 222 222 228 235 239 239 233 238 242 228 218 219 221 224 226 226 223 215 224 239 238 230 230 225 218 225 232 234 237 240
274 266 257 254 255 256 254 247 241 239 239 238 235 235 234 228 224 226 231 235 230 220 214 212 212 213 214 217 220 219 219 220 219 216 215 214 212 213 217 218 221 220 219 224 225 217 218 221 222 222 220 220 222 224 226 224 221 227 233 238 240 237 238 239 230 230 226 213 214 222 224 221 213 216 232 237 230 228 223 216 221 230 234 234 235
273 270 263 258 255 256 258 257 251 244 242 241 238 234 233 231 229 230 233 234 229 221 216 213 213 213 213 215 217 217 217 217 217 216 215 214 211 211 215 217 219 219 219 224 224 217 219 222 221 223 223 222 222 223 227 227 225 229 233 238 242 240 238 237 230 232 226 205 205 218 222 220 216 214 226 235 235 236 234 224 218 223 231 232 232
275 270 267 264 259 257 259 260 260 255 248 245 241 237 236 237 238 240 240 236 232 226 219 215 213 212 210 212 215 216 215 214 214 213 212 212 210 211 214 215 216 218 218 223 223 215 218 223 221 222 224 224 224 224 227 229 228 230 233 237 241 242 240 236 228 228 227 209 203 214 221 219 217 214 217 226 229 230 233 231 226 228 230 229 230
277 273 269 267 264 260 257 257 260 260 256 251 245 240 240 243 243 241 238 235 232 228 224 219 216 213 210 211 215 216 213 214 213 211 210 211 209 209 211 212 214 216 217 220 219 213 216 223 222 221 223 225 225 225 227 230 231 231 233 235 239 242 241 236 228 223 224 216 205 210 218 220 218 215 213 222 228 227 226 227 229 234 233 228 229
274 272 269 268 266 263 259 255 256 258 257 254 250 245 244 245 245 242 236 230 226 226 226 225 223 220 217 215 216 215 213 214 215 213 211 211 208 207 210 211 212 213 215 217 216 212 214 220 223 221 221 224 227 228 226 228 231 233 235 237 239 241 240 234 226 219 223 227 217 210 215 220 221 220 218 224 230 228 224 224 224 229 229 225 228
278 275 272 269 267 265 263 259 257 256 256 254 251 247 245 245 247 246 240 233 228 227 226 228 230 231 228 223 220 217 216 217 217 215 214 214 213 210 209 209 210 210 212 214 215 214 213 217 222 222 221 221 225 227 226 225 229 232 234 237 238 238 238 235 228 221 224 233 232 220 217 219 223 226 222 222 226 227 227 226 225 228 225 219 221
282 279 275 271 269 267 266 265 262 259 256 254 251 248 246 246 248 250 247 240 235 233 232 232 233 234 233 230 226 221 220 221 221 220 218 218 217 213 211 211 211 210 210 212 216 217 213 215 220 222 222 220 221 224 225 225 228 231 232 235 237 238 237 238 235 228 228 235 238 233 226 221 224 229 226 221 222 227 230 229 229 233 228 217 216
283 281 277 274 271 268 267 267 266 263 259 256 256 256 255 254 254 255 253 246 240 239 240 241 239 237 238 236 229 222 220 222 223 222 220 219 218 216 214 214 213 212 212 212 216 218 216 216 218 220 221 222 222 223 225 227 230 232 234 235 237 238 238 240 240 233 233 240 244 244 237 228 227 232 232 226 221 223 228 230 231 233 227 218 218
284 282 279 276 272 270 268 267 266 267 264 260 259 261 263 262 260 259 257 251 244 242 243 244 241 238 241 242 235 224 219 220 222 221 219 218 217 215 214 214 215 216 218 218 219 221 220 219 219 218 219 221 224 224 224 226 229 232 234 235 235 235 235 240 241 235 234 241 247 248 244 237 236 238 238 234 226 222 225 229 231 234 231 226 225
285 282 280 277 274 272 271 268 266 267 267 264 261 260 263 264 262 260 258 252 245 242 243 244 240 238 241 246 242 230 220 217 219 219 219 217 213 212 212 214 216 218 221 224 223 222 222 222 223 222 220 219 222 225 225 227 229 232 234 235 237 237 236 240 243 239 237 242 247 249 246 240 239 235 234 239 240 234 233 234 236 238 236 233 231
285 282 280 277 275 272 270 268 268 266 266 265 262 259 260 262 260 258 256 253 248 245 245 244 241 240 242 244 245 237 225 219 218 218 219 217 212 210 212 214 217 219 222 224 223 222 221 222 225 226 225 223 224 228 231 231 231 232 235 236 239 239 239 240 242 241 241 244 248 251 249 243 236 225 223 234 241 240 238 238 238 236 232 232 233
284 282 280 277 274 271 268 265 266 265 263 264 261 257 256 258 258 255 252 251 248 245 245 242 238 239 237 237 243 242 232 225 223 220 219 218 214 212 212 214 217 220 222 223 223 222 222 223 226 228 231 232 233 234 237 237 235 233 234 236 238 240 240 240 240 241 241 244 248 250 249 247 239 227 221 226 233 235 235 235 235 232 229 231 235
286 285 283 281 277 273 269 265 264 263 261 262 262 257 253 253 256 255 250 248 247 246 245 241 235 234 234 234 238 240 235 230 228 225 223 221 217 214 214 215 217 220 221 221 222 221 221 223 225 228 234 237 239 238 238 237 236 234 233 234 237 239 240 239 240 240 240 241 244 245 245 246 243 232 224 224 228 231 234 237 237 234 230 231 235
288 286 284 282 278 274 270 266 265 264 260 258 258 258 254 250 251 253 250 246 246 247 245 240 235 232 234 236 236 237 237 236 234 231 229 227 222 217 215 215 217 218 219 219 219 219 220 222 224 228 233 236 238 239 239 237 235 233 233 234 236 238 239 239 240 241 240 240 241 242 244 248 249 241 230 225 225 229 235 238 240 238 234 232 232
289 287 285 282 277 273 269 265 265 264 261 258 257 255 255 251 247 249 250 246 246 246 243 240 236 232 232 236 235 234 236 241 244 238 233 231 229 223 217 214 214 215 217 217 217 217 219 222 225 228 231 233 236 239 239 237 234 233 234 235 237 239 240 241 243 245 244 244 245 245 246 250 252 249 240 231 227 229 233 236 236 238 237 233 230
291 290 290 287 282 277 271 266 263 262 261 262 259 254 253 251 245 245 248 244 241 241 240 238 237 232 229 230 232 231 233 244 261 254 237 231 232 228 221 216 213 214 216 216 217 218 219 221 225 228 228 231 234 236 236 235 235 235 235 237 240 244 243 244 248 250 248 247 246 244 244 246 248 249 245 239 233 230 232 233 233 233 235 234 232
295 293 291 289 284 278 273 268 265 262 261 262 259 254 251 250 245 242 244 241 236 236 237 236 235 234 230 227 230 232 230 237 260 266 242 231 231 230 226 221 217 216 217 216 216 218 220 221 224 228 229 229 231 233 234 234 234 234 237 240 243 244 243 245 250 251 248 247 247 245 244 244 246 247 247 245 242 237 234 234 234 233 233 235 234
298 298 295 290 283 277 274 270 265 261 259 259 258 254 251 249 246 241 240 241 237 233 234 234 234 234 231 226 228 232 230 231 244 266 258 239 233 232 232 229 223 219 217 217 217 217 219 221 222 227 231 230 229 230 231 232 232 234 239 242 242 241 241 244 249 251 250 248 248 249 249 248 248 249 249 249 249 245 241 238 237 236 237 238 238
301 302 299 292 284 278 276 273 265 259 256 255 256 255 251 250 249 242 238 240 238 232 230 231 232 232 230 227 228 231 231 233 240 252 257 248 238 235 236 235 229 222 217 218 219 219 220 221 222 226 230 229 227 228 229 231 233 237 240 241 239 238 239 243 248 252 252 252 252 253 254 254 253 253 253 253 254 254 251 247 244 242 242 243 243
308 306 303 295 285 278 276 273 267 259 254 251 252 255 255 253 252 246 239 238 238 233 228 227 228 228 227 225 225 228 230 233 237 240 243 244 240 236 235 234 230 223 218 219 222 222 223 226 227 229 230 229 226 225 226 229 233 236 239 239 236 235 239 244 248 249 249 252 254 255 256 258 258 258 259 259 258 258 256 254 251 248 246 246 247
312 310 307 297 284 276 274 271 265 260 256 253 252 254 255 254 254 250 241 237 238 233 226 225 226 226 225 223 223 225 227 230 233 233 233 237 238 237 236 235 230 222 216 217 222 223 225 228 230 232 231 229 226 224 223 225 227 231 234 236 235 236 239 243 245 246 248 251 253 254 256 258 259 260 261 259 259 259 259 255 251 249 247 245 246
315 314 311 300 283 277 275 268 262 259 258 257 254 254 253 251 252 250 243 238 238 233 225 222 222 223 223 221 220 222 223 225 227 227 225 228 232 234 235 236 234 227 220 218 221 223 225 227 229 230 231 230 229 227 225 223 222 225 228 230 232 235 238 240 241 243 247 250 252 254 255 257 258 258 256 254 255 257 258 254 250 249 250 248 246
320 317 315 303 286 282 281 273 263 256 255 255 254 253 251 246 246 248 243 240 239 233 225 221 221 222 224 222 220 220 221 221 222 223 224 226 229 229 227 230 236 233 226 222 222 224 226 227 224 221 221 222 220 218 220 223 226 228 229 230 233 236 238 240 240 241 245 248 251 252 253 252 253 253 252 252 253 253 252 250 247 247 249 248 246
324 319 318 310 295 290 290 284 272 261 256 253 251 251 249 243 244 248 244 241 242 238 228 223 222 223 225 225 222 219 220 221 222 225 228 230 229 226 222 224 234 238 230 224 223 224 231 237 225 213 216 222 220 219 224 230 232 233 234 234 236 238 240 242 242 244 247 248 249 251 252 250 248 248 248 249 249 249 247 244 244 246 246 244 244
331 324 322 319 311 302 297 292 283 272 261 252 249 251 249 242 243 250 247 243 246 244 234 228 227 226 226 227 225 222 222 224 225 225 227 229 230 228 224 220 225 233 233 228 226 229 241 260 249 240 245 248 241 236 237 240 239 238 237 236 237 241 245 247 250 253 254 254 253 254 255 253 251 249 249 250 250 249 246 243 243 245 244 241 241
338 331 327 325 318 309 301 294 287 277 266 256 251 251 250 246 248 254 251 246 248 249 240 231 229 229 229 229 227 226 226 228 228 225 225 228 230 229 224 219 218 222 226 229 230 232 238 246 243 240 243 245 244 243 245 247 246 244 243 243 244 248 252 256 259 261 261 261 261 260 259 259 258 257 256 256 253 250 248 246 245 244 242 241 241
343 342 338 333 324 313 303 293 285 280 274 265 255 250 255 260 261 258 252 248 252 256 250 238 232 233 236 235 230 225 224 226 227 227 228 230 231 227 222 219 218 217 219 223 224 223 225 230 231 230 233 239 245 248 248 249 248 247 248 248 249 253 259 264 268 270 270 272 273 271 269 266 265 265 264 262 258 252 248 247 245 242 242 242 243
347 351 347 336 332 336 333 313 288 278 276 272 262 258 263 265 262 257 254 252 252 253 244 231 227 229 233 235 233 228 225 225 224 225 228 229 228 224 220 218 220 220 219 217 214 213 215 219 220 223 230 239 246 251 251 251 250 249 250 252 254 259 265 270 273 275 278 281 282 282 281 278 274 272 270 267 262 257 252 249 245 243 243 243 245
349 357 353 335 336 351 359 350 306 271 265 269 269 265 262 257 255 258 257 251 250 254 247 223 214 217 221 225 228 228 228 227 225 226 227 225 221 219 217 218 221 222 218 212 209 210 213 215 216 220 228 236 243 248 249 250 250 251 255 260 265 269 272 275 276 279 283 284 283 283 284 283 283 282 279 274 268 261 257 253 250 247 246 244 246
354 359 0 354 352 357 2 4 347 289 267 270 273 262 249 246 271 301 276 255 253 270 299 317 208 208 222 226 223 222 224 226 228 229 227 220 214 212 213 215 218 216 209 205 207 211 213 216 219 223 228 233 239 243 245 248 253 257 262 266 270 273 275 276 277 278 280 279 279 280 282 282 282 282 281 279 275 268 262 259 257 256 254 251 250
0 2 5 11 15 11 12 23 31 26 0 342 328 266 222 232 271 306 292 264 255 262 277 281 244 235 271 318 299 231 223 221 223 224 220 214 211 210 211 212 212 207 201 201 208 214 219 224 229 231 232 234 237 241 246 251 256 260 265 268 271 273 273 273 274 274 273 272 272 274 276 278 278 277 276 275 274 273 270 266 265 266 265 261 257
4 6 8 17 27 26 24 37 54 62 62 57 56 70 83 79 62 62 49 25 268 234 235 230 222 230 247 292 346 349 283 220 214 213 210 208 206 206 207 209 206 202 201 205 211 218 224 230 233 234 233 234 237 242 248 253 257 262 267 269 269 269 268 268 270 271 271 272 273 273 273 273 275 274 272 271 271 273 273 270 268 269 270 267 262
8 12 13 18 29 35 33 38 53 69 77 80 80 83 88 87 81 79 68 59 72 108 121 119 138 189 220 241 295 349 13 36 201 202 198 194 193 194 197 202 203 203 207 212 217 221 224 227 231 236 238 240 242 244 247 251 257 262 266 268 268 268 267 268 268 269 270 272 274 274 272 270 271 272 273 272 272 272 272 271 269 270 272 271 265
15 18 20 20 26 34 38 38 43 55 67 77 82 86 92 96 96 96 93 84 85 96 100 98 98 99 95 97 118 122 76 65 90 146 158 162 175 189 200 211 216 218 220 222 228 234 237 241 248 255 258 258 259 259 259 259 259 260 261 263 264 265 266 268 270 271 271 271 271 269 267 266 268 271 273 273 272 270 269 268 268 269 271 272 268
22 23 25 25 26 31 36 40 41 42 48 57 67 74 80 87 92 97 101 101 96 97 101 101 100 98 97 97 100 104 106 100 91 101 123 138 148 175 202 211 211 211 212 215 220 229 234 238 243 246 249 252 256 259 260 259 257 256 256 257 259 261 263 266 270 272 273 274 272 270 270 271 272 272 271 271 271 270 268 267 267 268 268 269 269
28 28 30 33 33 33 35 38 40 41 43 47 50 55 62 71 81 90 97 99 96 97 102 105 101 97 99 105 110 113 114 113 111 110 114 122 132 151 178 194 197 195 195 199 203 209 214 219 223 226 229 232 234 237 240 243 247 251 254 256 258 260 262 266 269 272 274 275 275 274 274 275 274 271 269 269 269 268 266 264 263 264 264 265 269
28 31 34 38 39 39 39 39 39 40 42 44 46 48 52 57 61 67 74 80 82 86 93 97 96 98 105 113 122 128 128 127 128 128 127 131 142 154 165 177 184 188 194 201 206 212 218 224 229 232 233 234 235 237 242 247 253 258 261 263 265 267 270 273 274 275 275 275 274 273 273 272 269 268 267 265 263 261 260 259 259 260 263 266 271
25 29 33 39 42 43 44 43 43 44 44 44 44 45 48 51 53 54 56 59 59 59 62 65 64 67 81 97 114 131 135 135 139 142 143 147 156 164 172 180 186 194 204 213 219 224 230 235 239 242 244 247 251 255 259 263 267 269 271 272 274 275 277 276 275 274 273 272 270 269 268 267 265 264 263 261 258 258 258 259 260 262 265 268 270
21 27 31 36 42 46 47 47 48 49 50 50 50 48 48 48 49 49 50 51 52 51 49 47 42 36 34 34 28 27 53 91 129 155 168 178 191 202 212 220 225 230 236 241 246 251 255 258 261 264 266 268 271 273 274 275 275 275 275 274 273 272 271 270 269 269 269 268 267 267 266 265 264 263 262 262 263 263 264 265 266 267 268 268 268
20 30 35 36 40 44 48 50 51 52 52 54 55 54 53 52 51 50 50 50 50 51 51 49 45 40 36 32 27 27 28 24 15 3 346 326 312 299 291 287 282 278 277 278 278 277 278 279 280 281 281 280 279 278 277 274 273 271 270 268 266 266 267 268 269 270 271 271 272 272 271 270 268 268 268 269 269 269 269 270 270 270 269 269 266
20 32 42 44 44 46 48 49 52 54 56 58 59 60 60 59 58 57 56 55 54 55 55 55 55 55 54 52 50 49 47 44 41 40 35 23 4 337 314 302 297 294 292 289 288 287 287 287 287 286 284 281 278 276 275 273 272 271 270 269 270 272 273 275 275 275 275 276 276 275 273 273 271 270 270 271 271 270 270 270 270 269 269 267 264
22 33 46 52 52 53 54 55 55 55 58 61 63 65 66 66 65 65 64 63 62 61 60 59 59 59 60 62 63 65 66 66 67 68 68 68 66 61 51 31 360 332 310 296 292 291 292 297 302 301 295 286 281 280 281 283 286 287 287 289 292 294 294 293 289 284 281 281 281 282 281 280 278 275 273 273 272 271 270 270 269 267 265 263 261
19 27 40 50 54 54 56 61 63 63 63 63 64 66 66 67 67 67 67 68 68 68 68 67 66 65 65 65 66 67 68 68 69 71 73 75 77 79 81 81 80 77 76 77 77 77 77 74 66 58 52 47 45 40 34 24 13 4 357 352 351 351 345 336 324 310 297 289 287 289 292 292 290 286 283 281 278 276 272 270 269 267 264 262 260
18 17 22 35 47 51 54 60 65 67 67 68 68 68 68 67 67 66 66 67 68 69 70 71 71 71 71 71 71 71 71 71 70 70 70 71 73 75 79 82 84 83 82 81 80 80 79 77 74 72 69 65 61 56 50 41 33 26 19 12 7 5 2 359 355 348 335 317 303 298 299 299 297 295 292 289 287 284 281 278 277 275 273 269 266
24 21 15 18 32 47 55 59 63 65 66 67 67 68 69 69 70 69 67 67 67 68 68 69 70 69 70 71 71 72 73 73 73 72 72 72 71 70 69 71 72 72 72 72 71 71 70 67 63 61 60 57 53 47 39 30 22 16 13 13 12 9 5 3 3 3 2 357 348 336 324 314 307 302 299 297 294 291 290 288 286 282 277 272 268
22 26 20 13 17 37 53 57 55 56 59 61 62 63 64 64 66 67 66 65 64 64 64 66 67 67 68 69 69 70 71 73 73 73 73 72 71 69 68 67 66 66 68 68 66 65 65 63 59 56 52 48 44 38 32 29 25 19 16 16 18 17 13 9 6 4 3 4 5 4 357 347 335 323 313 308 305 302 298 294 290 283 275 267 260
Height
1474 1474 1475 1477 1479 1480 1481 1483 1484 1486 1488 1490 1491 1493 1494 1496 1498 1500 1498 1496 1496 1497 1499 1501 1503 1506 1508 1511 1513 1515 1518 1520 1522 1523 1525 1527 1528 1530 1531 1533 1534 1536 1538 1540 1542 1543 1544 1545 1546 1548 1549 1550 1551 1551 1552 1554 1555 1556 1556 1557 1557 1558 1559 1560 1560 1560 1559 1559 1559 1558 1557 1558 1558 1559 1560 1560 1561 1562 1563 1564 1564 1564 1565 1566 1566
1472 1472 1472 1473 1475 1476 1478 1479 1480 1482 1484 1486 1488 1489 1490 1491 1494 1498 1499 1496 1494 1493 1495 1497 1499 1502 1504 1506 1509 1511 1514 1516 1518 1520 1521 1523 1525 1526 1527 1529 1530 1532 1533 1536 1538 1539 1541 1542 1543 1545 1546 1547 1547 1548 1549 1550 1551 1552 1553 1554 1554 1555 1556 1557 1558 1558 1558 1557 1558 1557 1555 1556 1556 1557 1558 1558 1560 1560 1561 1562 1562 1562 1563 1564 1564
1470 1470 1470 1471 1472 1474 1475 1476 1478 1479 1481 1482 1484 1484 1486 1487 1489 1494 1497 1497 1493 1490 1490 1492 1494 1497 1500 1502 1504 1507 1509 1512 1514 1516 1517 1518 1520 1522 1523 1525 1526 1528 1529 1531 1534 1536 1537 1539 1540 1542 1543 1543 1544 1545 1546 1547 1548 1548 1549 1550 1551 1551 1552 1554 1555 1556 1556 1555 1556 1556 1554 1554 1554 1554 1555 1557 1558 1559 1559 1560 1560 1561 1561 1562 1562
1469 1469 1468 1469 1471 1472 1473 1474 1475 1476 1477 1478 1479 1480 1481 1482 1483 1489 1494 1495 1492 1489 1486 1488 1490 1492 1494 1497 1499 1501 1504 1507 1509 1511 1513 1514 1515 1517 1519 1521 1522 1524 1525 1527 1530 1532 1533 1535 1537 1538 1540 1540 1540 1541 1542 1543 1544 1544 1545 1546 1547 1548 1549 1550 1551 1553 1553 1553 1554 1554 1553 1553 1553 1552 1553 1555 1556 1557 1557 1558 1558 1558 1559 1560 1560
1467 1467 1467 1468 1469 1470 1470 1471 1472 1473 1473 1474 1475 1476 1477 1477 1477 1482 1489 1492 1491 1487 1483 1482 1484 1486 1488 1491 1493 1496 1499 1501 1504 1506 1508 1509 1510 1512 1515 1516 1518 1520 1522 1523 1525 1527 1529 1531 1533 1535 1536 1536 1537 1537 1538 1540 1541 1541 1541 1542 1543 1545 1545 1546 1547 1549 1550 1551 1551 1552 1552 1552 1553 1552 1550 1552 1554 1555 1556 1557 1556 1556 1557 1558 1557
1465 1465 1466 1466 1467 1467 1468 1468 1469 1469 1469 1469 1471 1473 1474 1474 1474 1475 1481 1487 1488 1484 1479 1476 1477 1480 1482 1485 1487 1490 1493 1496 1498 1501 1503 1505 1506 1507 1509 1512 1514 1516 1517 1519 1521 1523 1525 1527 1529 1531 1532 1532 1533 1534 1534 1536 1537 1538 1538 1539 1540 1541 1542 1542 1543 1545 1546 1547 1548 1549 1549 1549 1550 1550 1548 1548 1550 1551 1553 1554 1555 1554 1555 1555 1555
1463 1463 1463 1463 1464 1465 1465 1465 1465 1465 1466 1466 1468 1471 1472 1473 1472 1471 1475 1481 1482 1480 1475 1470 1470 1473 1475 1478 1481 1484 1487 1489 1492 1495 1498 1500 1501 1502 1504 1506 1509 1511 1513 1514 1516 1518 1520 1522 1524 1526 1528 1528 1529 1530 1531 1532 1534 1535 1536 1536 1537 1538 1539 1539 1540 1541 1542 1544 1545 1546 1546 1546 1547 1548 1547 1546 1547 1548 1549 1550 1551 1551 1552 1552 1552
1461 1461 1461 1460 1461 1462 1462 1463 1462 1462 1463 1463 1466 1469 1469 1470 1470 1468 1470 1474 1476 1475 1471 1467 1465 1466 1469 1471 1474 1478 1481 1483 1486 1489 1493 1495 1496 1497 1498 1500 1503 1506 1508 1510 1512 1513 1515 1518 1519 1521 1523 1524 1526 1527 1527 1528 1530 1531 1532 1534 1535 1536 1537 1537 1537 1537 1538 1540 1542 1543 1543 1544 1544 1545 1545 1544 1543 1543 1543 1545 1546 1547 1548 1549 1550
1460 1459 1459 1459 1459 1459 1460 1460 1459 1459 1460 1461 1463 1464 1464 1465 1465 1464 1465 1466 1468 1468 1468 1466 1464 1463 1464 1467 1470 1473 1475 1477 1480 1483 1487 1490 1491 1492 1493 1495 1498 1500 1503 1505 1507 1509 1511 1513 1514 1517 1518 1520 1522 1523 1524 1524 1525 1526 1527 1529 1531 1533 1535 1536 1536 1535 1534 1535 1537 1539 1540 1540 1540 1541 1541 1538 1537 1538 1539 1541 1542 1544 1545 1546 1547
1458 1457 1457 1457 1457 1457 1457 1457 1457 1457 1457 1458 1459 1459 1459 1460 1461 1461 1460 1459 1460 1460 1461 1463 1464 1465 1465 1464 1466 1468 1470 1472 1475 1478 1482 1484 1486 1487 1488 1490 1492 1494 1497 1499 1501 1503 1505 1508 1510 1512 1514 1516 1517 1519 1520 1521 1521 1521 1522 1524 1526 1528 1531 1532 1533 1533 1531 1531 1532 1534 1536 1535 1535 1536 1536 1535 1535 1537 1538 1538 1538 1541 1542 1543 1544
1455 1455 1455 1455 1455 1454 1454 1454 1454 1454 1455 1455 1455 1455 1457 1458 1458 1458 1456 1455 1455 1455 1456 1458 1460 1464 1466 1464 1463 1464 1466 1468 1471 1474 1477 1480 1481 1482 1483 1485 1487 1488 1490 1492 1495 1498 1500 1503 1505 1508 1510 1512 1513 1515 1516 1516 1517 1517 1518 1519 1521 1523 1525 1527 1529 1530 1529 1527 1527 1529 1530 1531 1531 1532 1533 1534 1534 1534 1534 1535 1536 1537 1538 1538 1539
1452 1452 1451 1451 1451 1451 1450 1450 1450 1450 1451 1452 1452 1452 1454 1454 1454 1453 1452 1451 1450 1450 1452 1454 1456 1460 1464 1465 1463 1462 1462 1464 1466 1469 1473 1475 1477 1478 1479 1480 1481 1483 1485 1486 1489 1492 1495 1498 1501 1503 1504 1506 1509 1511 1512 1513 1513 1513 1514 1515 1516 1518 1520 1522 1524 1525 1526 1525 1524 1524 1525 1527 1529 1529 1530 1531 1531 1531 1532 1533 1533 1534 1534 1533 1534
1448 1448 1447 1447 1447 1446 1446 1446 1445 1445 1446 1447 1449 1448 1448 1448 1447 1447 1446 1446 1446 1446 1447 1450 1452 1455 1461 1465 1463 1460 1459 1460 1462 1465 1468 1471 1473 1475 1475 1475 1475 1477 1479 1481 1483 1486 1489 1493 1495 1498 1499 1502 1504 1507 1508 1509 1510 1510 1511 1511 1512 1513 1515 1517 1519 1521 1521 1522 1521 1521 1521 1523 1525 1525 1526 1528 1530 1529 1529 1530 1530 1531 1531 1530 1530
1445 1444 1444 1443 1443 1442 1442 1441 1440 1440 1440 1441 1443 1442 1441 1440 1440 1440 1441 1441 1441 1442 1443 1445 1447 1449 1455 1462 1463 1459 1457 1456 1458 1461 1463 1466 1469 1470 1471 1472 1472 1473 1474 1476 1478 1481 1484 1487 1490 1492 1495 1497 1500 1502 1504 1505 1507 1507 1508 1508 1507 1508 1509 1511 1513 1514 1516 1516 1516 1517 1518 1519 1520 1521 1523 1525 1527 1527 1526 1527 1528 1528 1529 1528 1529
1442 1441 1440 1439 1439 1438 1437 1436 1435 1435 1435 1436 1437 1437 1435 1434 1434 1435 1436 1436 1437 1439 1441 1442 1443 1444 1450 1458 1461 1459 1455 1454 1455 1457 1459 1462 1465 1466 1468 1469 1470 1470 1471 1472 1474 1476 1479 1482 1484 1487 1491 1493 1495 1497 1499 1501 1503 1504 1505 1505 1505 1506 1506 1506 1508 1509 1510 1511 1511 1512 1514 1515 1516 1519 1520 1521 1522 1524 1525 1526 1527 1528 1529 1529 1530
1439 1438 1437 1436 1435 1434 1433 1431 1430 1430 1431 1431 1431 1432 1431 1430 1430 1431 1431 1432 1434 1435 1437 1439 1439 1440 1445 1453 1457 1457 1454 1452 1451 1453 1455 1457 1460 1463 1465 1467 1468 1468 1468 1468 1470 1472 1475 1478 1480 1483 1486 1489 1491 1493 1495 1497 1499 1500 1501 1502 1502 1503 1503 1503 1504 1506 1507 1508 1509 1511 1512 1513 1514 1515 1517 1518 1519 1521 1523 1524 1525 1527 1528 1527 1527
1435 1434 1432 1431 1430 1429 1428 1427 1425 1425 1426 1426 1426 1426 1426 1426 1426 1427 1427 1428 1430 1431 1433 1435 1436 1437 1441 1447 1452 1453 1452 1450 1448 1448 1450 1453 1456 1459 1462 1464 1464 1465 1465 1465 1467 1469 1471 1473 1476 1479 1482 1485 1488 1490 1491 1493 1494 1496 1497 1498 1499 1499 1499 1499 1500 1502 1503 1505 1507 1508 1510 1511 1512 1512 1514 1515 1515 1518 1519 1519 1519 1522 1523 1523 1522
1431 1429 1428 1427 1426 1425 1425 1423 1421 1419 1420 1421 1421 1421 1421 1422 1422 1422 1423 1424 1425 1427 1429 1431 1432 1434 1437 1441 1446 1449 1449 1448 1446 1444 1445 1448 1451 1453 1457 1460 1461 1461 1462 1463 1464 1465 1467 1470 1473 1475 1477 1480 1483 1485 1487 1488 1490 1491 1492 1493 1494 1494 1494 1495 1496 1497 1499 1500 1502 1504 1506 1507 1508 1509 1510 1511 1512 1513 1513 1513 1514 1517 1517 1517 1517
1429 1426 1424 1422 1420 1419 1418 1418 1416 1414 1413 1414 1416 1416 1417 1418 1418 1418 1418 1419 1420 1422 1425 1426 1427 1429 1432 1436 1440 1443 1445 1445 1445 1444 1442 1443 1447 1450 1453 1456 1457 1458 1459 1460 1461 1462 1464 1466 1469 1471 1473 1475 1478 1481 1482 1484 1486 1487 1488 1489 1490 1489 1489 1490 1492 1493 1494 1496 1497 1499 1501 1502 1503 1504 1506 1507 1508 1509 1509 1509 1511 1512 1512 1512 1514
1423 1421 1419 1417 1414 1412 1411 1409 1409 1409 1407 1407 1409 1412 1412 1413 1414 1414 1412 1413 1415 1417 1419 1421 1422 1423 1427 1431 1434 1438 1440 1443 1445 1444 1441 1441 1443 1447 1450 1452 1453 1454 1455 1456 1458 1459 1460 1462 1464 1466 1469 1471 1474 1476 1478 1479 1481 1483 1484 1485 1484 1483 1485 1487 1488 1489 1491 1492 1494 1496 1497 1498 1499 1499 1501 1502 1503 1504 1505 1505 1507 1507 1507 1508 1509
1417 1415 1413 1411 1409 1407 1405 1403 1401 1402 1402 1401 1402 1405 1407 1408 1409 1409 1408 1407 1408 1411 1413 1415 1416 1418 1421 1425 1428 1431 1436 1440 1441 1438 1437 1439 1442 1444 1447 1448 1450 1451 1452 1452 1454 1455 1455 1457 1458 1460 1464 1466 1469 1471 1473 1474 1476 1479 1479 1479 1480 1481 1483 1484 1485 1487 1488 1489 1491 1492 1493 1493 1494 1494 1495 1496 1497 1498 1499 1500 1501 1503 1503 1504 1505
1411 1409 1406 1404 1402 1400 1399 1397 1395 1394 1395 1395 1395 1396 1400 1402 1403 1404 1405 1403 1402 1404 1406 1409 1411 1413 1417 1421 1423 1426 1430 1433 1434 1432 1432 1435 1440 1443 1445 1446 1447 1447 1448 1448 1448 1448 1449 1450 1451 1454 1457 1460 1463 1465 1467 1469 1471 1473 1474 1476 1477 1479 1480 1481 1483 1484 1485 1486 1486 1487 1488 1488 1489 1489 1489 1490 1491 1492 1494 1495 1496 1498 1499 1500 1501
1406 1403 1399 1397 1395 1393 1391 1390 1389 1387 1387 1389 1389 1389 1392 1395 1397 1398 1400 1400 1398 1398 1400 1403 1406 1408 1412 1415 1418 1421 1423 1425 1427 1431 1435 1437 1440 1442 1443 1443 1444 1444 1444 1444 1444 1443 1443 1444 1446 1449 1452 1455 1457 1460 1462 1464 1467 1468 1470 1472 1474 1475 1477 1479 1480 1480 1481 1482 1482 1482 1482 1483 1483 1483 1484 1484 1485 1487 1488 1490 1491 1493 1494 1495 1497
1402 1398 1394 1391 1388 1386 1384 1383 1382 1380 1380 1382 1383 1383 1385 1388 1390 1391 1393 1395 1394 1392 1394 1397 1400 1402 1405 1409 1413 1416 1419 1421 1424 1431 1436 1438 1439 1440 1439 1439 1440 1441 1443 1443 1443 1443 1444 1444 1444 1446 1448 1450 1452 1455 1458 1460 1462 1464 1466 1469 1471 1473 1474 1476 1476 1476 1477 1478 1478 1477 1477 1477 1477 1478 1479 1480 1482 1483 1484 1485 1486 1488 1488 1489 1491
1397 1393 1389 1385 1382 1381 1379 1377 1376 1375 1376 1377 1377 1378 1379 1381 1383 1384 1386 1388 1388 1387 1388 1391 1394 1397 1400 1404 1408 1411 1415 1418 1422 1427 1431 1432 1433 1433 1433 1433 1435 1437 1439 1441 1441 1442 1444 1445 1444 1444 1444 1446 1448 1450 1453 1455 1457 1460 1463 1465 1468 1469 1470 1471 1472 1473 1473 1472 1472 1472 1472 1473 1473 1474 1475 1477 1479 1480 1480 1480 1481 1481 1483 1483 1484
1392 1388 1384 1380 1377 1376 1374 1373 1372 1371 1372 1372 1373 1373 1374 1376 1377 1378 1379 1381 1382 1382 1383 1385 1388 1391 1395 1399 1403 1406 1409 1414 1418 1421 1423 1426 1427 1428 1429 1431 1432 1433 1435 1437 1438 1440 1441 1442 1441 1440 1440 1440 1442 1444 1447 1450 1453 1456 1459 1461 1463 1464 1466 1466 1467 1468 1468 1468 1468 1468 1469 1470 1471 1472 1472 1473 1474 1474 1475 1475 1475 1475 1477 1478 1479
1387 1383 1378 1375 1373 1372 1370 1369 1368 1368 1368 1368 1369 1369 1369 1371 1372 1372 1373 1375 1376 1375 1376 1378 1381 1385 1389 1393 1398 1401 1404 1408 1412 1414 1416 1418 1420 1422 1425 1428 1431 1432 1433 1434 1435 1435 1436 1437 1437 1437 1437 1438 1440 1442 1445 1447 1450 1452 1454 1456 1457 1458 1460 1461 1463 1464 1464 1464 1465 1465 1466 1468 1469 1469 1469 1470 1470 1470 1470 1470 1469 1469 1471 1472 1473
1383 1378 1374 1371 1369 1368 1366 1365 1364 1364 1363 1364 1364 1364 1364 1365 1367 1367 1367 1369 1370 1369 1370 1372 1374 1378 1383 1387 1392 1395 1398 1401 1404 1408 1410 1411 1412 1414 1416 1419 1423 1427 1430 1431 1431 1429 1429 1429 1428 1430 1433 1437 1439 1442 1444 1446 1448 1449 1451 1452 1453 1454 1456 1457 1459 1460 1460 1460 1461 1462 1464 1465 1465 1465 1466 1466 1465 1465 1466 1466 1466 1465 1466 1467 1466
1380 1375 1371 1368 1366 1364 1363 1361 1360 1359 1358 1358 1359 1359 1358 1359 1361 1362 1362 1364 1364 1364 1364 1366 1369 1372 1376 1381 1384 1387 1391 1393 1397 1400 1403 1404 1405 1406 1408 1410 1413 1418 1422 1425 1424 1422 1421 1423 1426 1431 1436 1439 1441 1443 1445 1446 1448 1449 1449 1450 1451 1451 1452 1453 1453 1454 1454 1455 1457 1458 1459 1461 1461 1462 1462 1462 1461 1461 1462 1462 1462 1463 1463 1462 1460
1377 1372 1368 1365 1363 1361 1358 1356 1355 1354 1353 1353 1353 1353 1353 1354 1356 1357 1358 1359 1360 1360 1359 1361 1364 1367 1371 1374 1377 1379 1382 1386 1390 1393 1395 1396 1398 1400 1402 1403 1404 1408 1414 1417 1417 1418 1421 1426 1432 1438 1442 1444 1444 1445 1446 1446 1446 1447 1447 1448 1448 1448 1448 1448 1448 1449 1450 1451 1452 1454 1454 1456 1457 1458 1458 1458 1457 1457 1457 1458 1458 1458 1457 1456 1454
1376 1371 1367 1363 1360 1357 1354 1352 1350 1349 1348 1349 1349 1348 1349 1350 1351 1351 1352 1353 1354 1354 1354 1355 1358 1362 1365 1368 1371 1374 1377 1380 1384 1386 1387 1389 1391 1394 1396 1397 1397 1398 1403 1408 1410 1415 1421 1427 1432 1437 1440 1442 1443 1443 1443 1442 1443 1444 1445 1445 1445 1444 1444 1444 1444 1445 1446 1447 1448 1449 1450 1450 1451 1452 1453 1453 1453 1453 1453 1454 1454 1453 1452 1451 1449
1375 1370 1365 1362 1358 1354 1350 1348 1347 1345 1344 1345 1346 1346 1346 1347 1347 1347 1348 1348 1349 1351 1351 1351 1354 1358 1361 1363 1365 1368 1370 1373 1376 1378 1381 1383 1385 1387 1389 1391 1391 1391 1394 1398 1402 1407 1414 1420 1425 1429 1433 1435 1437 1438 1438 1438 1439 1440 1441 1441 1441 1441 1440 1440 1440 1441 1441 1442 1443 1443 1444 1446 1446 1447 1448 1448 1448 1448 1448 1448 1448 1447 1447 1446 1445
1374 1369 1364 1361 1357 1352 1348 1345 1344 1342 1342 1342 1343 1344 1345 1344 1343 1343 1344 1343 1345 1346 1346 1346 1347 1352 1356 1358 1359 1361 1363 1366 1368 1371 1374 1377 1379 1381 1383 1384 1386 1387 1389 1392 1395 1400 1405 1410 1415 1420 1423 1427 1429 1432 1432 1433 1434 1435 1436 1437 1437 1437 1438 1438 1438 1437 1437 1437 1437 1438 1439 1440 1441 1441 1442 1443 1443 1442 1441 1441 1442 1441 1441 1441 1441
1374 1369 1365 1361 1356 1351 1347 1344 1341 1340 1340 1340 1341 1341 1341 1340 1340 1339 1339 1339 1341 1342 1341 1340 1341 1343 1347 1350 1352 1355 1358 1361 1363 1366 1369 1371 1373 1375 1378 1381 1383 1385 1387 1388 1391 1395 1400 1404 1407 1411 1415 1419 1421 1424 1426 1427 1429 1431 1432 1433 1433 1434 1434 1434 1434 1433 1433 1433 1433 1433 1434 1435 1436 1436 1436 1437 1437 1437 1436 1436 1436 1436 1435 1436 1436
1375 1369 1365 1361 1357 1352 1347 1342 1339 1337 1337 1338 1338 1338 1338 1338 1338 1338 1337 1337 1339 1340 1340 1342 1343 1344 1346 1348 1351 1354 1356 1358 1361 1363 1365 1367 1369 1371 1374 1377 1380 1382 1385 1387 1391 1394 1398 1401 1404 1407 1411 1413 1416 1418 1421 1423 1425 1427 1428 1429 1429 1429 1429 1429 1429 1429 1429 1429 1429 1429 1430 1430 1431 1431 1431 1431 1431 1431 1431 1431 1431 1431 1430 1431 1431
1376 1371 1366 1362 1358 1355 1350 1344 1340 1338 1338 1338 1337 1336 1336 1337 1337 1337 1336 1337 1337 1338 1340 1343 1346 1349 1351 1353 1355 1356 1355 1355 1356 1359 1361 1363 1366 1369 1372 1375 1377 1380 1383 1387 1390 1394 1398 1401 1405 1408 1410 1412 1414 1416 1418 1420 1422 1423 1424 1424 1424 1425 1425 1425 1425 1425 1425 1425 1425 1425 1425 1426 1425 1426 1426 1425 1424 1424 1424 1425 1425 1425 1425 1425 1424
1380 1374 1369 1364 1360 1357 1354 1349 1344 1341 1340 1339 1337 1335 1335 1336 1338 1338 1338 1338 1338 1338 1340 1343 1347 1350 1352 1355 1357 1359 1358 1355 1355 1357 1360 1363 1367 1371 1374 1377 1378 1380 1383 1387 1392 1396 1400 1403 1406 1408 1410 1412 1414 1415 1417 1418 1419 1419 1420 1421 1421 1421 1421 1421 1421 1421 1421 1421 1420 1421 1421 1420 1420 1420 1420 1419 1419 1419 1419 1419 1419 1419 1419 1419 1419
1384 1378 1372 1367 1362 1359 1357 1354 1348 1344 1342 1340 1338 1337 1337 1338 1340 1341 1342 1342 1342 1341 1341 1344 1347 1350 1352 1355 1358 1361 1363 1362 1360 1360 1362 1365 1369 1374 1377 1380 1382 1384 1387 1391 1395 1398 1402 1404 1407 1409 1411 1412 1413 1414 1415 1416 1416 1417 1418 1418 1418 1418 1418 1418 1418 1418 1417 1417 1416 1416 1416 1416 1416 1416 1416 1415 1414 1414 1413 1413 1414 1413 1413 1414 1413
1388 1382 1376 1371 1365 1361 1358 1355 1351 1348 1345 1343 1341 1341 1340 1341 1341 1341 1343 1346 1346 1344 1343 1344 1347 1350 1353 1356 1358 1362 1366 1368 1366 1365 1366 1368 1373 1378 1382 1385 1387 1389 1392 1395 1398 1401 1403 1406 1407 1408 1409 1410 1411 1412 1413 1413 1414 1415 1415 1415 1415 1414 1414 1414 1414 1413 1413 1413 1412 1412 1412 1412 1412 1413 1412 1411 1409 1409 1408 1408 1408 1408 1407 1407 1407
1391 1386 1380 1374 1369 1364 1360 1356 1353 1351 1348 1347 1345 1344 1344 1343 1344 1344 1344 1346 1347 1346 1346 1347 1349 1352 1355 1358 1359 1363 1367 1369 1369 1369 1370 1372 1376 1382 1386 1389 1391 1393 1395 1397 1399 1401 1403 1405 1405 1406 1407 1407 1408 1409 1409 1410 1410 1411 1411 1410 1410 1409 1409 1409 1409 1409 1408 1408 1408 1408 1408 1408 1408 1408 1407 1405 1404 1404 1403 1403 1402 1402 1402 1402 1402
1394 1389 1384 1379 1374 1369 1364 1359 1356 1354 1352 1350 1349 1348 1347 1347 1348 1348 1348 1348 1347 1348 1349 1350 1352 1354 1357 1359 1361 1363 1365 1367 1368 1370 1372 1375 1377 1381 1385 1389 1391 1392 1394 1395 1396 1398 1399 1400 1401 1401 1402 1403 1403 1404 1404 1405 1405 1405 1405 1404 1404 1403 1403 1404 1404 1404 1403 1403 1402 1402 1402 1401 1401 1400 1400 1399 1399 1399 1398 1397 1397 1396 1396 1396 1397
1398 1393 1388 1383 1378 1373 1368 1364 1361 1358 1355 1353 1351 1350 1350 1350 1350 1351 1351 1351 1351 1351 1351 1352 1354 1356 1358 1360 1362 1363 1364 1365 1367 1370 1372 1375 1377 1379 1382 1384 1387 1388 1389 1391 1392 1393 1394 1394 1395 1396 1398 1398 1399 1400 1400 1401 1401 1400 1400 1399 1399 1398 1398 1398 1398 1398 1398 1397 1397 1396 1396 1395 1395 1394 1394 1394 1394 1394 1393 1392 1391 1391 1391 1391 1392
1402 1397 1393 1388 1383 1379 1375 1371 1367 1364 1360 1357 1356 1354 1353 1352 1352 1352 1353 1353 1354 1354 1354 1355 1356 1358 1359 1361 1362 1363 1364 1366 1368 1369 1371 1374 1375 1377 1378 1380 1382 1383 1385 1386 1387 1388 1390 1390 1392 1393 1394 1395 1396 1396 1396 1396 1396 1395 1395 1394 1394 1393 1393 1393 1392 1392 1392 1392 1391 1390 1390 1390 1389 1388 1388 1388 1388 1388 1387 1386 1386 1385 1385 1384 1385
1405 1401 1397 1393 1389 1384 1381 1377 1373 1370 1367 1365 1362 1360 1358 1356 1355 1355 1354 1355 1355 1356 1356 1357 1358 1358 1359 1360 1362 1363 1364 1366 1368 1369 1371 1372 1374 1375 1376 1377 1378 1379 1381 1382 1383 1385 1386 1387 1388 1389 1390 1391 1391 1391 1391 1391 1391 1391 1390 1390 1389 1388 1388 1388 1387 1387 1387 1386 1385 1384 1384 1384 1383 1382 1382 1382 1382 1381 1381 1380 1379 1379 1378 1378 1378
1408 1404 1401 1397 1394 1390 1386 1383 1380 1377 1374 1371 1368 1366 1364 1362 1361 1359 1358 1358 1358 1358 1358 1359 1359 1360 1360 1361 1362 1363 1365 1366 1367 1369 1370 1371 1373 1374 1375 1375 1376 1377 1378 1379 1380 1382 1383 1384 1384 1385 1386 1386 1386 1386 1386 1387 1387 1387 1386 1385 1385 1384 1383 1383 1382 1382 1381 1380 1379 1379 1378 1378 1377 1377 1376 1376 1376 1375 1374 1374 1374 1373 1372 1372 1372
1411 1408 1405 1402 1398 1395 1392 1388 1386 1382 1379 1377 1374 1372 1370 1369 1367 1366 1364 1363 1363 1362 1362 1362 1362 1363 1363 1364 1365 1366 1367 1367 1368 1369 1370 1371 1372 1373 1374 1375 1376 1376 1377 1378 1379 1380 1381 1381 1381 1382 1382 1382 1383 1383 1383 1383 1384 1384 1383 1382 1381 1380 1380 1379 1379 1378 1377 1375 1374 1373 1373 1372 1372 1371 1371 1371 1370 1370 1369 1369 1369 1368 1368 1368 1368
1413 1410 1408 1405 1403 1400 1397 1394 1391 1388 1386 1383 1381 1379 1377 1375 1374 1372 1371 1369 1369 1368 1367 1367 1368 1368 1368 1368 1368 1369 1369 1370 1371 1371 1372 1372 1373 1374 1375 1375 1376 1377 1377 1378 1379 1379 1380 1380 1381 1381 1381 1381 1381 1382 1382 1382 1382 1382 1381 1380 1380 1379 1378 1377 1376 1374 1373 1372 1371 1369 1369 1368 1368 1367 1367 1366 1366 1366 1365 1365 1364 1364 1364 1363 1363
1414 1412 1411 1408 1406 1404 1401 1399 1396 1394 1392 1390 1387 1385 1383 1382 1380 1378 1377 1375 1374 1373 1373 1373 1373 1373 1372 1372 1372 1372 1373 1373 1373 1374 1374 1374 1375 1375 1376 1377 1377 1378 1378 1379 1379 1380 1381 1381 1382 1382 1382 1382 1382 1382 1382 1382 1382 1381 1381 1380 1379 1378 1377 1375 1374 1372 1371 1369 1368 1366 1366 1365 1365 1364 1364 1363 1363 1362 1361 1361 1361 1360 1360 1360 1360
1415 1414 1412 1410 1408 1407 1405 1403 1401 1399 1397 1395 1394 1391 1389 1387 1386 1384 1383 1381 1380 1379 1378 1378 1377 1377 1377 1377 1377 1377 1377 1376 1376 1377 1377 1377 1378 1379 1379 1380 1380 1381 1381 1381 1382 1382 1383 1383 1384 1383 1383 1383 1382 1382 1382 1382 1382 1381 1380 1380 1379 1378 1376 1375 1373 1371 1369 1367 1366 1365 1363 1363 1362 1362 1361 1361 1360 1360 1359 1358 1358 1358 1357 1357 1357
1416 1414 1413 1411 1410 1408 1407 1405 1404 1402 1401 1399 1398 1396 1395 1393 1391 1390 1388 1387 1386 1384 1383 1383 1382 1382 1382 1381 1381 1381 1380 1380 1380 1380 1380 1381 1382 1383 1383 1383 1384 1384 1384 1384 1384 1384 1385 1385 1385 1385 1384 1383 1383 1382 1382 1381 1381 1380 1380 1379 1378 1377 1376 1374 1372 1370 1368 1367 1365 1364 1362 1361 1360 1360 1359 1359 1358 1357 1356 1356 1356 1356 1355 1355 1355
1417 1415 1414 1412 1411 1409 1408 1407 1406 1404 1403 1402 1401 1399 1398 1396 1395 1393 1392 1391 1390 1389 1388 1387 1387 1386 1386 1385 1385 1384 1384 1384 1384 1383 1383 1384 1384 1385 1386 1386 1387 1387 1386 1386 1386 1386 1386 1387 1387 1386 1385 1384 1384 1383 1382 1381 1380 1380 1379 1379 1377 1376 1375 1374 1373 1371 1370 1368 1366 1364 1362 1361 1359 1358 1357 1357 1356 1355 1354 1354 1354 1354 1354 1354 1354